Theta_e
284 284 284 284 284 284 285 285 285 285 285 286 286 285 285 285 285 285 285 285 285 285 285 285 286 286 286 286 286 286 286 286 286 286 286 286 286 286 286 286 286 286 286 287 287 287 287 287 287 287 287 287 287 287 288 288 288 288 288 288 289 289 289 290 290 290 290 290 291 291 292 292 292 292 292 293 293 293 294 293 294 294 294 294 294 295
284 284 284 284 285 285 285 285 285 285 286 286 285 285 285 285 285 285 285 285 285 286 286 286 286 286 286 286 285 285 285 285 285 285 285 285 285 285 285 286 286 286 286 286 286 286 286 286 286 287 287 287 287 288 288 288 288 288 288 288 289 289 289 290 290 290 290 290 291 291 291 291 292 292 292 293 293 293 293 293 293 294 294 294 294 294
284 284 284 285 285 285 285 285 285 285 286 285 285 285 285 285 285 286 286 286 286 286 286 286 285 285 285 285 285 285 284 284 284 285 285 285 285 285 285 285 285 285 285 286 286 286 286 286 287 287 287 287 288 288 288 288 288 289 289 289 289 289 290 290 290 290 290 291 291 291 291 291 292 292 292 292 292 292 292 292 293 293 294 294 293 293
284 284 285 285 285 285 285 285 285 285 285 285 285 285 285 286 286 286 286 286 286 286 285 285 285 284 284 284 284 284 284 284 284 284 284 284 284 285 285 285 285 285 285 285 285 286 286 286 287 287 287 287 287 288 288 288 288 289 289 289 289 289 289 290 290 290 290 291 291 291 291 291 291 291 291 291 291 292 292 292 292 292 293 293 293 293
284 285 285 285 285 285 285 285 285 285 285 285 286 286 286 286 286 286 286 286 285 285 285 284 284 284 284 284 283 283 283 284 284 284 284 284 284 284 284 284 284 285 285 285 285 286 286 286 286 286 287 287 287 287 287 287 288 288 288 288 288 289 289 289 289 290 290 290 290 290 290 290 290 290 290 290 290 290 291 291 291 291 292 292 292 292
285 285 285 285 285 285 285 285 285 285 285 286 286 286 286 286 286 286 285 285 284 284 284 284 284 283 283 283 283 283 283 283 283 283 283 283 283 284 284 284 284 285 285 285 286 286 286 286 286 286 286 286 286 286 287 287 287 287 288 288 288 288 288 289 289 289 289 289 289 289 289 289 288 289 289 289 289 289 289 290 290 290 291 291 291 291
285 285 285 285 285 285 285 285 285 286 286 286 286 286 286 285 285 285 284 284 284 284 284 283 283 283 283 283 283 283 283 283 283 283 283 283 283 284 284 284 285 285 285 285 285 285 285 285 285 285 285 286 286 286 286 287 287 287 287 287 288 288 288 288 288 288 288 288 288 288 288 288 288 288 288 288 288 288 289 289 289 290 290 290 290 291
285 285 285 285 285 285 285 286 286 286 286 286 286 285 285 285 284 284 284 284 284 283 283 283 283 283 283 282 282 282 282 282 283 283 283 283 284 284 284 284 285 285 285 285 285 285 285 285 285 285 285 285 286 286 286 286 286 286 286 286 286 286 286 287 287 287 287 287 287 287 287 287 287 288 288 288 288 288 288 289 289 289 290 290 290 290
285 285 285 285 285 286 286 286 286 286 286 286 285 285 284 284 284 284 284 283 283 283 283 283 283 282 282 282 282 282 283 283 283 283 284 284 284 284 284 284 284 284 284 284 284 284 284 284 284 285 285 285 285 285 285 285 285 285 285 285 285 285 286 286 286 286 286 286 287 287 287 287 287 287 287 287 287 288 288 288 288 289 289 289 290 290
285 285 285 285 286 286 286 286 286 286 285 285 285 284 284 284 284 284 283 283 283 283 283 282 282 282 282 283 283 283 283 283 284 284 284 284 284 284 284 284 284 284 283 284 284 284 284 284 284 284 284 284 284 285 285 285 285 285 285 285 285 285 285 285 286 286 286 286 287 287 287 287 287 287 287 287 287 287 287 288 288 288 288 289 289 289
285 286 286 286 286 286 286 285 285 285 284 284 284 284 284 284 284 283 283 283 283 282 282 282 282 283 283 283 283 283 283 284 284 284 284 284 283 283 283 283 283 283 283 283 283 283 284 284 284 284 284 284 284 284 284 284 284 284 284 284 284 285 285 285 285 286 286 286 286 286 286 286 287 287 287 287 287 287 287 287 288 288 288 288 289 289
286 286 286 286 286 286 285 285 285 284 284 284 284 284 283 283 283 283 283 283 282 282 282 283 283 283 283 283 283 284 284 284 284 284 283 283 283 283 283 283 283 283 283 283 283 283 283 283 283 283 283 283 284 284 284 284 284 284 284 284 284 284 285 285 285 285 286 286 286 286 286 286 286 287 287 287 287 287 287 287 287 288 288 288 288 289
286 286 286 286 285 285 285 284 284 284 284 284 284 283 283 283 282 282 282 282 282 283 283 283 283 283 283 284 284 284 284 284 284 283 283 283 283 283 283 283 283 283 283 283 283 283 283 283 283 283 283 283 283 283 283 283 283 283 284 284 284 284 285 285 285 285 285 286 286 286 286 286 287 287 287 287 287 288 288 288 288 288 288 288 288 288
286 286 285 285 285 284 284 284 284 284 283 283 283 283 282 282 282 282 282 283 283 283 283 283 284 284 284 284 284 284 284 283 283 283 283 283 283 283 283 283 283 283 283 283 283 283 283 283 283 283 283 283 283 283 283 283 283 283 284 284 284 284 285 285 285 285 285 286 286 286 286 287 287 287 287 288 288 288 288 288 288 288 288 289 289 289
285 285 285 285 284 284 284 284 283 283 283 283 282 282 282 282 282 282 283 283 283 283 284 284 284 284 284 284 284 283 283 283 283 283 283 283 283 283 283 283 283 283 283 283 283 283 282 282 282 282 282 282 282 283 283 283 283 284 284 284 284 284 285 285 285 285 285 286 286 286 287 287 287 287 288 288 288 288 288 288 288 289 289 289 289 289
284 284 284 284 284 284 283 283 283 283 282 282 282 282 282 283 283 283 283 283 284 284 284 284 284 284 284 283 283 283 283 283 283 283 283 283 283 283 283 283 283 282 282 282 282 282 282 282 282 282 282 283 283 283 283 283 284 284 284 284 284 284 284 285 285 285 285 286 286 286 286 287 287 287 287 288 288 288 288 289 289 289 289 289 290 290
284 284 284 284 284 283 283 283 282 282 282 282 282 282 283 283 283 283 283 284 284 284 284 284 284 284 284 283 283 283 283 283 283 283 283 283 283 282 282 282 282 282 282 282 282 282 282 282 282 283 283 283 283 283 283 283 283 283 284 284 284 284 284 285 285 285 285 286 286 286 287 287 287 287 287 288 288 288 288 288 289 289 289 289 289 290
284 284 283 283 283 283 282 282 282 282 282 282 283 283 283 283 283 284 284 284 284 284 284 284 284 284 284 283 283 283 283 283 283 283 283 283 282 282 282 282 282 282 282 282 282 282 282 282 283 283 283 283 283 283 283 283 283 283 283 284 284 284 284 285 285 285 286 286 286 286 287 287 287 287 287 287 288 288 288 288 288 288 289 289 289 289
283 283 283 283 282 282 282 282 282 282 283 283 283 283 283 284 284 284 284 284 284 284 283 283 283 283 283 283 283 283 283 283 283 283 282 282 282 282 282 282 282 282 282 282 282 282 282 282 282 282 282 282 282 283 283 283 283 283 283 284 284 284 284 285 285 285 285 286 286 286 286 286 287 287 287 287 288 288 288 288 288 288 288 289 289 289
283 282 282 282 282 282 282 282 283 283 283 283 283 284 284 284 284 284 284 284 283 283 283 283 283 283 283 283 283 283 283 283 282 282 282 282 282 282 282 282 282 282 282 282 282 282 282 282 282 282 282 282 282 282 283 283 283 283 283 284 284 284 284 284 285 285 285 285 286 286 286 286 287 287 287 287 288 288 288 288 288 288 288 289 289 289
282 282 282 282 282 282 283 283 283 283 283 284 284 284 284 284 284 283 283 283 283 283 283 283 283 283 283 283 283 283 283 282 282 282 282 282 282 282 282 282 282 282 282 282 282 282 282 282 282 282 282 282 282 282 282 283 283 283 283 283 284 284 284 284 285 285 285 285 286 286 286 286 287 287 287 287 287 288 288 288 288 288 289 289 289 289
282 282 282 282 283 283 283 283 283 283 284 284 284 284 284 283 283 283 283 283 283 283 283 283 283 283 283 283 283 282 282 282 282 282 282 282 282 282 282 282 282 282 282 282 282 282 282 282 282 282 282 282 282 282 282 283 283 283 283 283 284 284 284 284 285 285 285 285 285 286 286 286 286 286 287 287 287 287 287 288 288 288 288 289 289 289
282 283 283 283 283 283 283 284 284 284 284 284 284 283 283 283 283 283 283 283 283 283 283 283 283 283 282 282 282 282 282 282 282 281 281 282 282 282 282 282 282 282 282 282 282 282 282 282 282 282 282 282 282 282 282 283 283 283 283 283 284 284 284 284 284 285 285 285 285 286 286 286 286 287 287 287 287 287 288 288 288 288 288 289 289 289
283 283 283 283 284 284 284 284 284 284 283 283 283 283 283 283 283 283 283 283 283 283 283 283 282 282 282 282 282 282 282 282 281 281 281 282 282 282 282 282 282 282 282 282 282 282 282 282 281 282 282 282 282 282 282 283 283 283 283 283 284 284 284 284 284 285 285 285 285 286 286 286 287 287 287 287 288 288 288 288 288 288 288 289 289 289
283 283 284 284 284 284 284 284 283 283 283 283 283 283 283 283 283 283 283 283 283 283 282 282 282 282 282 282 281 281 281 281 281 281 281 282 282 282 282 282 282 282 282 282 282 282 282 282 282 282 282 282 282 282 282 283 283 283 283 283 283 284 284 284 285 285 285 285 286 286 286 286 287 287 287 287 287 287 287 288 288 288 288 288 288 289
284 284 284 284 283 283 283 282 282 282 282 283 283 283 283 283 283 283 283 282 282 282 282 282 282 282 281 281 281 281 281 281 281 281 281 281 282 282 282 282 282 282 282 282 282 281 281 282 282 282 282 282 282 282 282 282 282 283 283 283 283 284 284 284 285 285 285 285 285 285 286 286 286 286 286 286 287 287 287 287 287 287 288 288 288 288
283 283 283 282 282 282 281 281 282 282 282 282 282 282 282 282 282 282 282 282 282 281 281 281 282 282 281 281 281 281 281 281 281 281 281 281 281 282 282 282 282 282 282 281 281 281 282 282 282 282 282 282 282 282 282 282 282 283 283 283 284 284 284 284 284 284 285 285 285 285 285 285 286 286 286 286 287 287 287 287 287 288 288 288 288 288
282 281 281 281 281 281 281 281 281 281 281 282 282 282 282 282 282 282 282 281 281 281 281 281 282 282 282 282 282 281 281 281 281 281 281 281 281 282 282 281 281 282 282 282 281 282 282 282 282 282 282 282 282 282 282 282 283 283 283 283 283 283 284 284 284 284 284 284 285 285 285 285 286 286 286 287 287 287 287 288 288 288 288 288 289 289
280 280 280 280 280 280 281 281 281 281 281 281 281 282 282 281 281 281 281 281 281 281 281 281 281 281 281 281 281 281 281 281 281 281 281 281 281 281 281 281 282 282 282 282 282 282 282 282 282 282 282 282 282 282 282 282 283 283 283 283 283 283 283 283 284 284 284 284 285 285 285 286 286 286 286 287 287 287 287 287 288 288 288 288 289 289
280 280 280 280 280 280 280 280 280 280 280 281 281 281 281 281 281 280 280 280 281 281 281 281 281 281 281 281 281 281 281 281 281 281 281 281 281 281 281 281 281 282 282 282 282 282 282 282 282 282 282 282 282 282 282 282 282 282 283 283 283 283 283 283 284 284 284 284 285 285 285 286 286 286 286 286 286 286 287 287 287 287 288 288 288 288
280 280 280 280 280 280 280 280 280 280 280 280 280 280 280 280 280 280 280 280 280 280 281 281 281 281 281 281 281 281 281 281 281 281 281 281 281 281 281 281 282 282 282 282 282 282 282 283 282 282 282 282 282 282 282 282 283 283 283 283 283 283 283 283 284 284 284 284 285 285 285 285 285 286 286 286 286 286 286 287 287 287 287 287 287 287
279 280 280 280 280 280 280 280 280 280 280 280 280 280 280 280 280 280 280 280 280 280 280 280 280 280 280 281 281 281 281 281 281 281 281 281 281 281 281 281 282 282 282 282 282 282 282 282 282 282 282 282 282 282 282 283 283 283 283 283 283 283 283 284 284 284 284 284 284 285 285 285 285 285 285 286 286 286 286 286 287 287 287 287 287 287
279 279 279 280 280 280 280 280 280 279 279 280 280 280 280 280 280 280 280 280 280 280 280 280 280 280 280 280 280 281 281 281 281 281 281 281 281 281 281 282 282 282 282 282 282 282 282 282 282 282 282 282 282 282 283 283 283 283 283 283 283 283 283 284 284 284 284 284 284 284 284 284 285 285 285 285 285 285 286 286 286 286 287 287 287 287
279 279 279 279 279 279 279 279 279 279 279 279 280 280 280 280 280 280 280 280 280 280 280 280 280 280 280 280 280 280 280 280 281 281 281 281 281 281 281 281 281 282 282 282 282 282 282 282 282 282 282 282 282 283 283 283 283 283 283 284 284 284 284 284 284 284 284 284 284 284 284 284 284 284 284 284 285 285 285 285 286 286 286 286 287 287
279 279 279 279 279 279 279 279 279 279 279 279 280 280 280 280 280 280 280 280 280 280 280 280 280 280 280 280 280 280 280 281 281 281 281 281 281 281 281 281 281 281 282 282 282 282 282 282 282 282 282 282 283 283 283 283 283 283 284 284 284 284 284 284 283 283 283 283 283 283 284 284 284 284 284 284 284 285 285 285 286 286 286 287 287 287
279 279 279 279 279 279 279 279 279 279 279 279 279 279 279 279 279 279 280 280 280 280 280 280 280 280 280 280 280 280 280 281 281 281 281 281 281 281 281 281 281 281 282 282 282 282 282 282 282 282 282 283 283 283 283 283 284 284 284 284 283 283 283 283 283 283 283 283 283 284 284 284 284 284 284 284 285 285 285 286 286 286 287 287 287 287
279 279 279 279 279 279 279 279 279 279 279 279 279 279 279 279 279 279 280 279 280 280 280 280 280 280 280 280 280 280 280 280 281 281 281 281 281 281 281 281 281 281 282 282 282 282 282 282 282 282 283 283 283 283 283 283 283 283 284 284 283 283 283 283 283 283 283 284 284 284 284 284 284 284 285 285 285 285 286 286 286 286 287 287 287 287
279 279 279 279 279 279 279 279 279 279 279 279 279 279 279 279 279 279 279 279 280 280 280 280 280 280 280 280 280 280 280 280 280 281 281 281 281 281 281 281 281 281 281 281 282 282 282 282 282 282 283 283 283 283 283 283 283 283 283 283 283 283 283 283 284 284 284 284 284 284 284 284 285 285 285 285 285 285 285 286 286 286 286 286 287 287
279 279 279 279 279 279 279 279 279 279 279 279 279 279 279 279 279 279 280 280 280 280 280 280 280 280 280 280 280 280 281 281 281 281 281 281 281 281 281 281 281 281 281 281 281 282 282 282 282 283 283 283 283 283 283 283 283 283 283 283 283 284 284 284 284 284 284 284 284 284 284 285 285 285 285 285 285 285 286 286 286 286 286 286 287 287
279 279 279 279 279 279 279 279 279 279 279 279 279 279 279 279 279 280 280 280 280 280 280 280 280 280 281 281 281 281 281 281 281 281 281 281 281 281 281 281 281 281 281 282 282 282 282 282 282 282 283 283 283 283 283 283 283 283 283 283 284 284 284 284 284 284 284 284 284 285 285 285 285 285 285 286 286 286 286 286 286 287 287 287 287 287
279 279 279 278 278 278 278 279 279 279 279 279 279 279 279 279 280 280 280 280 280 280 280 281 281 281 281 281 281 281 281 281 281 281 281 281 281 281 281 281 281 281 282 282 282 282 282 282 282 283 282 282 282 282 282 282 283 283 283 283 283 284 284 284 284 284 285 285 285 285 285 285 286 286 286 286 286 286 287 287 287 287 287 287 287 287
278 278 278 278 278 278 278 278 279 279 279 279 279 279 279 279 280 280 280 280 280 280 281 281 281 281 281 281 281 281 281 281 281 281 281 281 281 281 281 281 282 282 282 282 282 282 282 282 282 282 282 282 282 282 282 282 282 283 283 283 283 283 284 284 285 285 285 285 285 285 286 286 286 286 286 287 287 287 287 287 287 288 288 288 288 288
278 278 278 278 278 278 278 279 279 279 279 279 279 279 279 280 280 280 280 280 280 280 281 281 281 281 281 281 281 281 281 282 282 282 282 282 282 282 282 282 282 282 282 282 282 282 282 282 282 282 282 282 282 282 282 282 282 282 283 283 283 284 284 285 285 285 285 285 285 286 286 286 286 287 287 287 287 288 288 288 288 288 288 289 289 289
278 278 278 278 278 278 278 279 279 279 279 279 279 279 280 280 280 280 280 280 280 280 280 280 280 280 281 281 281 281 282 282 282 282 282 282 282 282 282 282 282 282 282 282 282 282 282 282 282 282 282 282 282 282 282 282 282 283 283 283 283 284 284 285 285 285 285 285 286 286 286 287 287 287 287 288 288 288 289 289 289 289 289 289 289 289
278 278 278 278 278 278 278 278 279 279 279 279 279 280 280 280 280 280 280 280 280 280 280 280 280 280 281 281 281 282 282 282 282 282 282 282 283 283 283 283 282 282 282 282 282 282 282 282 282 282 282 282 282 282 282 282 282 283 283 283 284 284 284 284 285 285 285 286 286 286 287 287 287 287 288 288 289 289 289 290 290 290 290 290 290 290
278 278 278 278 278 278 278 278 279 279 279 279 280 280 280 280 280 280 280 280 280 280 280 280 280 281 281 281 281 282 282 282 282 283 283 283 283 283 283 283 283 282 282 282 282 282 282 282 282 282 282 282 282 282 282 282 283 283 283 284 284 284 284 285 285 285 286 286 286 287 287 287 287 288 288 289 289 290 290 290 290 290 290 290 290 290
278 278 278 278 278 278 278 278 279 279 279 280 280 280 280 280 280 280 280 280 280 280 280 280 280 281 281 281 281 282 282 282 283 283 283 283 283 283 283 283 283 283 282 282 282 282 282 282 282 282 282 282 282 282 283 283 283 283 283 284 284 284 285 285 285 286 286 286 286 287 287 287 288 288 289 289 290 290 290 290 290 290 290 290 290 290
278 278 278 278 278 278 278 278 279 279 279 279 280 280 280 280 280 280 280 280 280 280 280 280 280 281 281 281 281 282 282 282 283 283 283 283 283 283 283 283 283 283 282 282 282 282 282 282 282 282 282 282 282 282 283 283 283 283 284 284 284 285 285 285 286 286 286 286 286 287 287 288 288 289 289 289 290 290 290 290 290 290 291 291 291 291
277 277 277 278 278 278 278 278 279 279 279 279 279 280 280 280 280 280 280 280 280 280 280 280 280 281 281 281 282 282 282 283 283 283 283 283 283 283 283 283 283 283 283 283 282 282 282 282 282 282 282 282 282 282 283 283 283 284 284 284 285 285 285 285 286 286 286 286 287 287 287 288 288 289 289 290 290 290 290 290 290 291 291 291 291 291
277 277 277 278 278 278 278 278 278 279 279 279 279 279 280 280 280 280 280 280 280 280 280 280 281 281 281 281 282 282 283 283 283 283 283 283 283 283 283 283 283 283 283 283 283 283 283 283 283 283 283 283 283 283 283 284 284 285 285 285 285 285 285 285 286 286 286 287 287 287 288 288 289 289 289 290 290 290 290 291 291 291 291 291 291 291
277 277 277 278 278 278 278 278 278 278 279 279 279 279 279 279 279 280 280 280 280 280 280 280 281 281 281 282 282 283 283 283 283 283 283 283 283 283 283 283 283 283 283 283 283 283 283 283 283 283 284 284 284 284 284 285 285 285 284 284 285 285 285 286 286 286 286 287 287 288 288 289 289 289 289 290 290 290 290 291 291 291 291 291 291 291
Wind_Speed
24 25 25 25 26 26 26 25 25 26 27 26 26 26 26 26 26 26 26 25 25 25 25 25 26 27 28 30 31 32 33 34 35 35 35 35 36 36 36 36 36 36 37 37 38 38 38 38 38 38 38 38 38 38 37 37 37 37 37 37 37 36 37 37 37 36 36 36 36 36 36 37 37 37 36 36 37 37 37 36 36 35 36 37 37 36
25 25 25 25 25 26 27 26 25 25 26 27 27 27 27 27 27 26 25 24 24 24 24 25 27 29 30 31 32 32 33 33 33 34 34 34 34 35 35 36 36 37 37 37 38 38 38 37 37 37 37 37 37 37 36 36 36 36 36 36 36 36 36 37 36 36 36 36 36 36 37 37 36 36 36 36 37 37 35 34 33 33 33 34 33 33
26 26 26 25 25 25 26 27 26 25 26 27 28 28 27 27 25 24 23 22 23 24 26 27 29 30 30 30 30 31 31 31 32 32 33 34 35 35 36 36 37 37 37 37 37 37 37 36 36 36 36 36 36 36 36 36 36 36 36 37 36 36 36 36 36 36 36 36 36 36 36 35 35 34 33 34 35 34 33 32 32 31 31 31 30 30
25 26 26 26 25 25 25 26 27 27 26 26 27 26 25 24 22 21 22 23 25 26 27 28 28 28 28 29 29 29 30 31 32 33 34 35 35 36 36 36 36 36 36 36 36 36 36 36 36 36 36 36 36 36 36 36 36 36 36 36 36 36 36 35 35 35 35 35 34 34 34 33 32 31 30 31 32 32 31 31 31 31 30 30 30 30
25 25 26 26 26 25 26 26 26 27 26 25 24 23 22 21 21 22 24 26 27 27 27 27 27 27 28 28 29 30 31 32 33 34 35 35 35 35 35 35 35 35 35 35 35 35 35 36 36 36 36 36 37 36 36 36 36 36 36 35 35 35 35 35 34 34 34 34 34 34 33 32 31 31 31 31 32 32 32 32 32 32 32 32 32 32
25 25 26 26 26 26 26 26 26 26 24 22 21 20 21 21 22 24 25 26 26 26 27 27 27 27 28 28 29 31 32 33 34 34 34 34 34 34 33 33 33 33 33 34 34 35 35 36 36 37 37 37 37 37 36 36 36 36 36 36 35 35 35 35 35 34 34 34 34 35 34 34 33 33 32 33 33 33 33 33 33 34 34 34 34 34
26 25 25 25 26 27 26 25 24 23 21 20 20 21 22 22 23 24 25 25 26 27 27 28 28 28 28 28 29 30 31 32 32 32 32 31 31 31 31 32 32 32 33 34 35 35 36 37 37 37 37 37 37 37 36 36 36 36 36 36 35 35 35 35 35 35 35 35 35 35 35 34 34 33 33 34 34 34 34 34 34 34 34 34 34 34
26 26 26 26 26 27 25 23 20 18 19 19 21 23 25 25 25 25 26 26 27 27 28 28 28 28 28 28 29 29 30 30 30 29 29 29 29 30 30 31 32 33 34 35 35 36 36 37 37 37 37 37 37 37 37 36 36 36 36 36 35 35 35 35 35 35 35 35 35 35 35 34 34 34 34 34 34 34 34 34 34 35 34 34 34 34
25 27 27 27 25 24 22 20 17 16 17 19 21 23 24 25 26 27 28 27 27 27 27 27 28 28 28 28 28 28 29 29 29 28 28 28 29 30 31 32 33 34 35 35 35 36 36 36 36 36 36 36 36 36 36 36 36 36 36 36 35 35 35 35 35 34 34 34 34 34 34 34 34 34 34 34 34 34 34 34 34 34 34 34 34 34
25 26 26 25 22 18 16 16 17 18 19 20 21 21 22 24 26 27 28 28 28 27 27 27 27 27 28 28 28 28 29 29 29 29 29 29 30 31 32 33 33 34 34 34 35 35 35 35 35 35 35 35 36 36 36 36 36 35 35 35 35 35 34 34 34 34 34 34 34 34 34 34 34 34 34 34 34 33 33 34 34 34 34 34 34 34
24 24 22 19 16 14 14 16 19 22 23 23 24 24 24 25 26 26 27 28 29 28 27 26 26 26 27 28 29 29 29 29 29 28 28 28 29 30 31 31 32 32 32 32 33 33 33 33 33 34 34 34 35 35 35 35 34 34 34 34 34 34 34 34 34 34 34 34 34 33 33 33 33 33 33 33 33 33 33 33 33 33 34 34 34 34
21 19 15 13 13 15 18 21 24 25 26 26 25 25 26 26 26 25 25 26 27 28 28 28 28 27 27 27 28 28 28 28 27 27 27 26 26 26 27 27 28 28 29 29 30 30 31 31 32 32 33 33 33 33 33 33 33 33 33 33 34 34 34 34 34 34 34 34 34 34 33 33 33 33 33 33 33 33 33 33 33 33 33 34 34 34
16 13 12 14 17 20 22 24 26 26 26 25 24 23 24 26 26 26 26 26 27 28 28 29 29 28 27 26 25 25 26 26 26 26 25 25 24 24 25 26 27 27 28 28 29 29 29 30 31 31 31 32 32 32 32 32 33 33 33 33 33 34 34 34 34 34 34 34 34 34 34 34 34 34 34 34 34 34 34 34 34 34 34 34 34 34
14 15 16 19 21 23 25 25 25 25 24 24 24 24 25 26 26 26 26 26 27 28 28 27 28 27 26 24 22 22 23 25 26 25 25 25 25 25 26 27 28 29 29 29 29 29 29 29 30 30 30 30 30 30 31 31 32 32 33 33 34 34 34 34 34 35 35 35 35 35 35 35 35 35 35 35 35 35 35 35 35 35 35 35 35 35
17 18 19 20 22 24 25 25 25 24 24 25 25 25 26 26 26 25 25 25 26 27 26 25 26 27 25 23 22 22 23 24 25 25 26 26 26 26 27 28 29 30 29 29 29 29 29 28 28 28 29 29 29 30 30 31 32 33 33 34 34 35 35 35 35 36 35 36 36 36 35 35 35 35 35 35 35 35 35 36 36 36 36 36 36 36
20 20 19 20 21 23 24 24 24 24 25 25 25 25 25 25 25 25 24 23 23 24 23 22 22 22 24 25 23 22 22 23 24 25 26 27 28 28 27 28 29 30 29 28 28 28 28 27 27 27 27 28 29 30 31 32 33 34 34 35 35 36 36 36 36 36 36 36 35 35 35 35 35 35 35 35 35 35 35 35 36 36 36 36 35 36
21 21 21 21 22 23 24 24 23 23 24 24 25 25 24 24 24 23 22 21 20 20 20 18 13 10 15 24 26 23 22 23 24 25 26 28 29 29 27 27 27 28 29 28 27 27 27 26 26 26 26 27 29 30 32 33 34 35 35 36 36 36 36 36 36 35 35 35 35 35 35 35 35 35 35 35 35 35 35 35 35 36 36 36 35 36
21 22 22 21 21 22 23 23 23 23 24 24 25 25 25 24 23 23 23 22 20 19 19 18 14 9 8 13 21 26 24 24 24 26 27 28 29 29 27 26 26 27 28 27 27 26 25 25 26 27 27 29 31 33 34 35 35 35 36 36 36 36 35 35 35 35 35 35 35 35 35 35 35 36 36 35 35 35 35 35 36 36 36 36 36 36
23 22 22 21 21 22 22 22 23 23 24 24 25 24 23 23 23 22 21 21 21 21 20 19 18 17 16 18 24 27 27 26 26 27 27 27 28 28 27 25 25 26 26 26 26 26 26 26 27 29 30 31 33 33 34 34 35 35 35 35 35 35 35 35 35 35 36 36 36 36 36 36 36 36 36 36 36 36 36 36 36 36 36 36 36 37
22 22 21 21 21 21 22 23 24 24 25 25 24 22 21 23 23 23 23 23 23 23 22 21 20 20 22 24 27 28 28 26 26 26 26 26 27 27 26 24 24 25 26 27 26 26 26 27 28 29 30 31 32 32 33 33 33 34 34 35 35 35 36 36 36 36 36 36 36 36 36 36 36 36 36 36 36 36 36 36 36 36 36 36 36 37
22 22 22 22 21 21 21 24 25 25 25 25 23 22 23 23 24 24 24 24 23 23 23 21 20 22 24 25 28 29 28 26 24 23 24 24 25 25 25 24 24 25 26 27 27 27 27 27 27 28 29 30 30 31 32 33 34 34 35 35 36 36 36 36 36 36 36 36 36 36 36 36 36 36 36 36 36 36 36 36 36 36 36 36 36 36
22 22 23 23 22 22 24 25 26 26 24 24 22 22 23 24 24 25 25 24 23 23 23 22 23 25 26 27 29 29 28 25 23 22 22 20 22 25 25 24 24 25 26 27 27 26 26 27 28 28 29 30 31 33 33 34 35 35 35 36 36 36 36 36 36 36 36 36 36 36 36 35 35 35 35 35 36 36 36 35 36 36 36 36 37 37
22 23 23 23 23 23 24 25 25 25 24 23 23 24 26 25 25 25 25 24 24 24 24 25 26 27 27 26 27 26 25 23 23 22 21 14 17 24 26 25 24 24 25 26 27 27 27 28 29 29 30 31 32 33 34 34 34 35 35 35 35 35 35 35 35 35 35 35 35 35 36 36 36 36 36 36 36 36 36 36 36 36 36 37 37 37
22 23 24 24 24 24 25 24 24 25 26 26 26 26 26 26 26 26 25 25 25 24 24 25 25 25 25 25 25 25 24 22 21 21 19 15 17 22 25 24 23 24 26 27 27 27 28 29 29 30 30 31 32 32 33 33 34 34 34 34 34 34 34 35 35 35 35 35 35 35 36 36 36 36 36 36 36 36 36 36 37 37 37 37 37 37
22 23 25 25 26 26 27 28 28 28 28 27 27 27 27 27 27 26 26 25 24 22 23 23 21 21 22 23 23 23 24 22 21 20 19 17 19 23 25 23 23 23 26 27 28 28 29 29 30 30 30 30 31 31 32 32 32 33 33 33 33 33 33 34 34 34 34 35 35 35 35 35 35 36 36 36 36 36 36 36 36 36 36 37 37 37
22 22 23 24 26 28 29 30 30 29 28 27 27 26 26 26 26 25 23 22 21 20 20 18 16 17 21 21 21 22 23 22 21 20 20 18 19 22 24 23 22 23 25 28 29 28 29 29 30 30 29 29 29 29 30 30 31 31 31 32 32 32 33 33 34 34 35 35 35 36 36 36 36 36 36 36 36 36 36 36 36 36 37 37 37 38
21 22 24 26 27 28 28 28 27 27 27 26 25 25 25 24 23 22 20 20 20 19 18 13 11 13 18 17 18 21 23 23 22 21 20 19 18 19 21 23 23 24 26 28 29 29 28 29 29 29 28 27 27 27 27 28 29 29 30 31 32 32 33 34 34 35 35 35 35 35 36 35 35 35 36 36 36 36 36 36 36 37 37 37 37 37
20 23 24 25 26 26 26 25 25 25 24 24 24 24 23 22 20 19 19 20 20 19 18 12 10 10 10 12 17 23 24 24 22 21 19 18 16 16 21 23 24 24 25 27 28 29 28 26 26 26 25 25 25 25 26 27 28 29 30 31 32 32 33 33 34 34 34 34 34 35 35 35 35 35 35 36 36 36 36 36 36 36 37 36 35 34
22 23 24 24 24 24 24 24 23 23 23 22 22 21 20 19 18 19 19 20 19 18 17 16 14 11 11 16 20 23 24 23 21 20 19 17 16 17 22 23 23 24 24 25 27 28 26 24 23 22 23 23 24 25 26 28 29 29 30 31 31 31 31 31 32 32 32 33 33 33 34 34 35 35 35 35 35 36 36 36 36 36 35 34 33 32
23 23 22 22 22 22 22 22 21 21 21 21 21 20 19 18 18 19 19 19 18 18 17 18 17 16 16 16 15 15 16 20 21 19 19 17 16 18 22 22 22 23 22 20 17 17 20 22 22 22 22 23 25 27 27 28 29 29 29 29 29 29 29 29 30 31 31 32 32 33 33 33 34 34 34 35 35 35 36 36 35 34 33 32 32 31
22 22 22 22 21 21 21 20 20 20 20 20 20 20 19 18 18 18 18 18 18 18 18 18 18 19 17 10 6 5 7 19 23 22 21 18 17 19 22 21 22 22 21 17 9 6 11 14 21 26 24 25 26 27 28 28 28 27 27 27 27 27 28 28 29 29 30 30 31 31 32 32 33 33 34 34 35 35 35 35 35 34 32 32 31 30
21 21 21 21 21 20 20 20 20 20 20 20 20 19 18 18 18 18 18 18 18 18 19 19 19 20 19 14 10 9 9 21 26 25 23 19 19 21 22 21 21 22 22 20 15 9 7 6 17 28 28 27 27 27 28 27 27 26 26 26 26 26 27 27 27 28 28 29 29 30 31 32 32 33 33 34 34 34 35 35 34 33 32 31 30 30
21 21 21 20 20 20 20 19 20 20 20 19 19 19 19 18 18 18 18 18 18 19 19 20 20 19 19 19 17 17 20 25 27 26 24 20 19 20 22 22 22 22 22 22 21 17 11 9 16 25 29 29 28 27 27 27 26 26 25 25 25 26 27 26 26 26 27 28 29 29 30 31 31 32 32 33 33 33 34 34 34 33 32 31 30 29
21 21 21 20 20 20 20 20 20 20 20 19 19 19 19 19 19 19 19 19 19 20 20 20 20 20 19 18 18 20 24 26 27 26 24 22 20 21 23 22 21 21 21 20 20 20 17 18 20 21 23 28 29 28 27 26 25 24 24 24 24 25 26 26 26 26 27 28 28 28 29 29 29 30 30 31 31 31 32 32 32 32 32 31 30 29
20 20 20 20 20 20 20 20 20 20 19 19 19 19 20 20 20 20 20 21 21 21 21 22 22 21 21 19 18 20 24 27 28 27 26 23 22 22 23 22 21 20 19 18 18 16 15 19 21 20 19 21 25 27 27 25 24 24 23 23 24 25 26 26 25 26 27 27 27 27 27 28 28 28 28 29 29 30 31 31 32 32 33 33 32 31
19 19 19 19 19 19 20 20 20 20 20 20 20 20 21 21 21 22 22 22 22 22 23 23 24 24 23 22 21 22 25 28 30 29 28 26 25 23 22 23 23 22 19 18 18 15 12 14 20 22 18 14 16 22 26 27 26 25 24 24 24 25 25 25 26 26 26 26 27 27 27 27 27 27 28 29 30 31 31 32 33 33 34 34 34 34
18 19 19 19 18 18 19 20 20 20 21 21 21 21 22 22 23 23 24 24 24 24 24 24 24 24 25 25 25 26 28 30 31 31 31 31 29 26 23 23 24 23 20 18 18 18 15 13 14 16 14 11 10 15 23 27 28 27 26 25 24 24 25 26 26 25 25 26 27 27 27 27 27 27 29 30 30 30 31 31 32 32 33 33 34 35
18 18 18 19 18 19 19 20 20 21 21 21 22 23 23 24 24 25 25 25 25 25 25 25 25 26 26 27 28 30 31 32 33 34 35 33 30 27 24 23 23 23 21 20 20 19 17 12 11 11 11 12 15 20 24 26 26 26 27 26 26 25 25 26 25 25 24 25 27 27 28 28 28 28 29 29 29 28 28 29 30 30 30 30 31 32
18 18 18 19 19 19 19 20 20 21 22 22 22 23 24 24 24 24 24 23 23 23 23 24 25 26 27 28 29 29 30 30 32 33 33 32 30 28 26 24 23 23 23 22 21 20 18 14 11 9 10 11 15 21 26 25 25 25 26 27 28 27 25 24 24 24 25 26 27 28 28 28 28 28 28 28 27 26 26 27 27 28 28 28 28 28
18 18 19 19 19 19 19 20 21 22 22 23 23 23 23 23 23 23 23 23 22 22 23 23 24 25 26 26 26 26 27 28 29 30 30 30 29 28 26 24 23 23 23 22 21 21 20 18 17 17 17 13 13 17 22 24 25 25 25 23 23 25 27 26 26 26 26 26 26 26 27 28 28 27 27 27 26 26 26 26 26 27 27 25 24 23
18 19 19 20 20 20 21 21 22 22 22 22 22 22 22 22 22 22 22 22 23 22 22 22 24 25 25 25 25 25 25 26 26 26 27 28 28 27 26 25 25 24 23 22 21 21 20 20 20 21 21 20 20 21 22 24 25 26 24 21 21 25 29 28 27 25 24 25 25 26 27 27 27 27 27 27 27 28 28 28 28 28 27 26 24 22
19 19 20 20 21 21 22 22 22 22 22 21 21 21 21 21 21 21 22 23 23 23 22 22 24 25 25 26 25 24 24 24 24 25 26 26 26 26 26 25 25 24 23 22 21 21 21 21 21 21 21 21 20 18 19 23 25 25 23 22 24 26 28 28 26 24 23 25 26 28 28 27 27 27 28 27 28 30 31 30 30 29 28 27 25 24
19 20 20 21 21 22 22 22 21 21 21 20 20 21 21 20 21 21 22 22 22 23 23 23 23 23 23 24 25 25 24 24 24 24 24 24 25 25 25 25 24 24 23 21 21 21 22 22 21 21 22 21 20 18 17 21 24 24 23 23 23 20 16 22 26 28 27 27 27 27 27 26 26 27 28 28 29 30 30 29 29 29 29 27 26 25
20 20 21 21 21 21 21 21 21 21 21 21 21 21 21 21 21 21 21 21 22 23 23 23 22 21 21 21 22 24 24 24 24 23 23 23 23 23 22 22 22 22 22 21 20 21 22 22 22 22 22 20 19 18 18 20 21 22 23 23 22 19 15 19 25 28 28 28 28 28 28 28 28 29 29 28 28 28 27 27 27 27 27 27 26 25
20 20 20 20 20 20 20 20 21 21 21 21 21 21 22 21 21 21 20 21 22 22 23 22 20 19 18 19 21 23 23 24 23 23 22 22 22 21 21 21 21 22 22 22 21 20 20 20 21 22 22 21 20 19 19 19 20 21 23 23 23 23 24 25 26 26 26 27 28 29 30 31 30 29 28 27 26 26 25 25 24 25 25 26 25 24
19 19 20 20 20 20 20 20 21 21 22 22 22 22 22 22 21 21 20 20 21 21 21 21 19 17 16 18 20 21 22 23 23 23 22 21 21 21 21 21 20 21 22 22 22 22 22 21 22 22 22 20 20 19 19 19 18 19 21 23 24 24 24 24 24 24 25 26 28 30 32 33 31 28 25 25 25 24 24 24 24 24 25 25 24 23
19 19 20 20 20 20 20 20 21 21 21 22 22 23 22 22 21 21 21 20 20 20 20 20 19 17 18 19 19 19 19 20 22 23 23 22 21 21 21 21 21 21 21 22 23 23 23 24 24 23 20 18 17 17 19 18 17 17 19 21 22 23 23 23 24 25 25 26 28 30 33 32 29 26 24 24 24 24 23 24 24 24 24 23 23 22
19 20 20 20 20 20 21 21 21 21 21 22 23 24 23 22 21 21 21 21 20 20 20 19 18 18 19 20 20 20 20 20 21 22 23 23 22 21 21 21 21 21 21 21 22 22 23 24 24 24 22 18 15 15 17 17 18 18 20 21 22 22 22 23 25 25 26 26 29 32 33 30 26 24 24 23 22 22 22 23 23 23 23 22 21 20
19 19 20 20 20 20 20 21 21 21 21 22 23 24 24 24 22 21 20 20 20 19 19 18 18 18 18 20 20 21 21 21 21 21 22 22 22 22 22 22 21 21 21 21 21 21 21 22 22 21 21 20 18 16 16 17 18 19 20 21 21 21 21 23 25 25 26 27 30 32 31 28 26 24 22 19 17 18 22 23 22 22 21 21 20 19
19 19 19 19 19 20 20 20 21 21 21 22 22 23 24 24 23 22 21 20 19 19 18 18 18 17 18 19 20 20 20 20 20 20 21 22 22 22 21 22 21 21 20 20 20 20 20 18 17 15 15 16 17 17 16 16 19 21 21 21 21 20 21 22 24 26 26 28 29 30 30 28 27 25 22 18 15 16 19 21 22 22 22 22 21 20
20 19 19 19 19 20 20 20 21 21 21 21 22 23 23 23 23 22 21 21 20 19 18 19 18 18 18 19 19 20 20 19 19 19 21 22 21 21 20 21 20 19 18 16 16 16 15 12 11 12 12 11 11 12 14 16 19 20 19 20 20 21 21 22 24 26 27 28 28 27 27 27 26 25 23 19 15 12 14 17 21 24 25 26 25 24
Wind_Direction
300 301 302 303 302 301 301 300 300 300 301 301 302 302 301 301 299 298 297 296 295 295 295 294 294 295 295 295 295 296 296 295 295 295 294 294 294 294 293 293 293 293 293 293 294 294 294 294 295 294 294 293 292 291 291 290 289 288 287 287 286 286 285 284 283 282 282 281 280 280 279 278 278 277 277 277 276 275 274 273 272 272 270 268 266 265
301 301 302 302 302 301 301 301 300 300 300 301 302 302 301 300 299 298 297 296 295 295 295 295 296 297 297 297 296 296 296 295 294 294 294 294 294 294 294 294 294 294 294 294 294 294 294 294 294 293 293 292 291 290 289 288 287 287 286 285 284 284 283 282 281 281 280 280 279 279 279 279 278 278 277 276 275 274 273 272 271 271 269 267 264 262
303 303 303 303 302 301 300 301 301 300 300 300 300 301 300 299 298 297 297 297 297 298 298 298 299 299 298 297 296 296 295 295 294 294 295 295 295 295 295 294 294 294 294 293 293 293 293 292 292 292 291 291 290 290 289 288 287 287 286 285 285 284 283 282 281 281 280 279 279 279 279 279 279 279 278 277 276 275 273 271 270 269 269 267 266 263
301 302 302 303 302 299 299 300 301 301 301 300 299 299 299 298 297 296 297 298 300 300 300 300 300 299 299 298 297 296 296 296 295 296 296 296 296 295 295 294 294 293 292 292 291 291 291 291 291 292 292 292 291 291 290 290 289 289 288 288 287 286 286 285 284 283 282 281 280 280 279 279 280 280 280 281 281 280 278 275 273 273 273 272 271 269
298 299 300 301 301 300 299 299 300 300 301 300 299 299 300 298 298 298 299 301 301 301 301 301 300 300 299 299 298 297 297 297 296 296 296 296 295 294 294 293 293 292 291 290 290 290 291 291 292 292 292 292 292 291 291 290 290 290 289 289 288 287 287 286 286 285 284 284 283 283 283 283 283 283 283 283 283 282 281 280 279 278 278 277 276 274
296 296 298 298 298 298 299 299 300 300 300 300 300 300 300 299 299 301 302 302 301 301 302 302 302 301 300 299 299 298 297 297 296 296 295 295 294 293 293 292 292 291 291 290 290 291 292 292 293 292 292 291 291 291 290 290 289 289 289 288 288 288 287 287 286 286 286 286 286 286 286 286 286 285 284 283 282 282 282 281 280 279 278 278 277 275
295 295 295 295 295 296 296 297 298 300 300 301 302 303 302 302 301 301 301 301 301 302 303 303 303 302 301 300 299 298 298 297 296 295 295 294 293 293 293 292 292 291 291 291 292 292 292 292 292 292 291 291 290 290 289 289 289 289 289 289 289 289 289 288 288 287 287 286 286 286 287 287 286 285 284 283 282 281 280 279 278 277 277 276 275 274
294 294 294 294 294 295 295 295 296 298 299 301 304 305 305 304 303 302 302 302 303 304 305 305 304 303 302 301 300 299 298 297 296 296 295 295 294 294 294 293 293 292 292 292 292 292 292 292 291 291 290 290 290 290 290 290 290 290 290 290 290 290 289 289 288 287 287 286 286 286 286 286 286 285 284 282 281 280 279 278 277 276 275 274 273 272
290 291 292 293 293 294 296 297 298 299 300 300 301 303 304 305 305 306 306 306 306 306 307 306 305 303 302 301 300 299 298 297 296 296 296 296 295 295 294 294 293 293 292 292 292 292 292 291 291 290 290 290 290 290 290 291 290 290 290 289 289 288 288 288 287 287 286 286 285 285 285 285 285 284 282 281 280 278 277 275 275 274 273 273 272 271
285 286 288 291 292 292 296 299 303 304 303 300 298 298 300 304 307 309 309 309 308 307 306 305 304 303 303 302 302 301 299 297 296 296 295 295 294 294 293 293 293 293 292 292 292 291 291 290 290 290 290 290 290 290 290 290 290 289 289 288 288 287 287 286 286 286 285 285 285 284 284 284 283 282 280 279 278 276 275 274 273 272 272 271 270 270
285 285 287 291 295 297 299 301 304 306 306 304 302 302 303 305 309 311 310 309 308 308 306 304 302 302 302 303 303 302 301 299 298 297 296 295 294 293 293 292 292 292 292 291 291 291 290 290 290 289 289 289 289 289 289 289 289 288 288 287 287 287 286 286 286 286 285 285 284 284 283 282 281 280 279 278 276 275 274 273 272 271 270 269 269 268
286 289 291 297 304 306 306 305 306 307 308 308 308 308 308 309 310 309 307 306 306 306 305 304 303 302 301 301 302 302 301 300 299 298 298 298 297 296 295 294 294 294 293 293 293 292 291 291 290 290 289 289 289 288 288 288 288 288 287 287 287 287 286 286 286 285 285 284 284 283 282 281 280 279 277 276 275 274 273 272 270 269 268 268 267 266
290 297 303 307 308 308 308 308 308 309 310 310 310 309 309 309 309 307 304 302 302 302 303 303 303 302 301 300 300 299 299 299 298 299 299 299 300 299 299 298 297 297 297 296 295 293 292 292 291 290 289 289 288 288 287 287 287 287 287 287 287 286 286 286 285 285 284 283 283 282 281 279 278 277 276 275 274 273 272 271 269 268 267 266 266 265
305 310 310 308 306 306 307 308 308 308 308 308 308 307 306 307 306 305 302 300 300 300 301 300 300 301 302 301 299 298 298 299 300 300 300 300 300 301 300 299 298 297 297 296 294 293 293 293 292 291 289 289 288 287 287 287 287 287 287 287 287 286 286 285 285 284 283 283 282 281 280 279 278 277 276 274 274 272 271 270 269 268 266 265 264 263
313 311 308 305 304 305 306 307 306 306 306 306 306 305 305 304 303 302 300 299 300 301 302 300 300 301 302 303 303 303 302 301 301 301 301 300 300 301 301 299 297 296 296 294 293 293 293 291 290 289 289 288 288 288 288 288 288 288 288 288 287 287 287 286 285 285 284 283 282 281 280 279 278 277 276 275 274 273 272 270 269 268 266 265 263 262
308 306 303 303 303 304 305 305 305 304 304 304 304 304 303 302 301 301 299 298 299 301 303 303 304 304 304 305 305 306 305 303 301 301 301 301 301 301 301 299 297 296 295 293 292 292 292 291 289 288 287 287 288 289 289 289 289 289 289 289 289 288 288 287 287 286 285 284 283 283 282 281 280 278 278 276 275 274 273 272 271 270 268 267 265 264
303 302 301 302 302 303 304 304 303 302 303 303 302 301 300 298 298 298 298 298 299 301 303 305 306 306 307 307 308 308 308 306 304 302 302 301 301 301 301 298 295 294 294 293 292 292 292 290 289 288 287 288 289 291 291 291 291 291 290 290 290 289 289 288 287 286 285 285 284 283 282 281 280 280 279 278 277 276 275 274 273 272 271 269 268 267
301 301 301 301 301 302 303 303 302 301 301 301 301 300 298 296 296 297 297 298 300 302 304 305 304 302 303 306 307 308 310 308 306 304 302 301 300 301 301 298 295 293 293 292 292 292 292 290 290 290 289 290 291 292 292 291 291 291 291 290 290 289 289 288 287 286 285 285 284 283 282 282 281 280 279 278 277 276 275 274 273 272 271 270 269 268
300 301 300 300 300 300 300 300 300 300 300 299 299 298 297 296 298 299 299 301 302 303 303 302 301 299 299 299 302 306 309 308 306 303 302 300 299 300 301 299 295 292 292 292 293 294 293 292 292 291 291 291 291 291 291 291 291 290 290 290 290 289 289 288 288 287 286 285 284 283 283 282 281 280 279 278 277 276 275 274 272 271 270 269 268 267
299 299 297 297 297 297 297 296 296 297 297 296 295 295 295 299 302 303 303 303 303 302 301 299 297 298 299 299 301 304 307 308 305 302 300 298 298 299 301 299 296 294 294 294 295 296 295 294 293 292 292 291 291 291 291 291 291 291 290 290 290 290 289 289 288 287 286 285 284 283 282 281 281 280 279 278 277 276 275 273 272 271 270 269 268 267
296 295 294 294 294 294 293 294 293 293 294 294 295 297 300 304 305 305 305 304 303 301 300 298 297 299 300 301 301 303 305 305 303 300 299 298 298 299 301 300 298 296 296 296 297 297 296 295 293 292 293 292 292 292 292 292 291 291 291 290 290 290 289 288 287 287 286 285 284 283 282 281 280 280 279 278 277 276 275 274 273 272 271 270 268 267
292 292 292 292 291 289 288 288 289 291 294 297 299 302 305 306 306 305 304 303 302 301 300 299 299 299 299 298 298 300 302 301 299 297 298 298 297 299 302 303 301 298 296 297 298 298 297 296 295 294 293 293 293 293 292 292 291 291 291 290 290 290 289 288 288 287 286 285 284 283 283 282 281 280 279 278 277 276 275 274 273 272 271 269 268 267
291 290 291 291 289 287 286 287 291 296 301 303 303 303 303 303 302 302 302 302 302 301 300 299 298 298 297 296 297 298 299 299 298 296 296 293 295 299 303 304 302 298 296 297 299 300 299 298 297 296 294 294 293 292 292 292 291 291 291 290 290 290 289 289 288 287 286 285 284 283 282 281 280 279 278 277 276 275 274 273 272 271 270 268 267 266
291 290 290 291 291 292 294 298 302 305 306 305 303 302 301 301 300 300 300 300 300 299 299 299 299 299 298 299 299 299 299 300 299 298 295 291 293 298 302 303 302 299 298 299 301 302 300 299 297 296 295 294 293 293 292 292 292 292 291 291 291 290 289 288 287 286 285 284 283 282 282 281 280 280 279 278 278 277 276 275 273 272 270 269 268 267
291 291 292 295 297 299 301 303 303 303 303 303 303 302 303 303 302 302 301 300 299 299 301 302 301 300 301 302 302 301 301 302 302 299 296 293 293 296 300 303 302 300 299 301 302 302 301 299 298 298 297 295 294 294 293 292 292 292 292 291 291 290 289 288 287 286 286 285 285 284 284 284 283 282 282 281 280 279 278 277 275 274 273 271 270 269
292 293 296 299 300 301 301 300 300 300 301 302 303 304 306 306 305 304 303 302 302 303 304 304 301 301 302 303 302 301 303 304 303 300 296 294 295 297 300 303 303 300 300 302 303 303 302 300 299 299 298 296 295 294 293 292 292 292 291 291 291 290 290 289 289 288 288 287 287 286 286 285 284 283 282 281 280 279 278 276 275 274 273 272 271 270
296 298 299 300 300 300 300 300 301 302 303 303 304 305 306 307 306 305 303 303 305 306 305 302 299 300 303 303 302 302 303 305 304 301 298 295 294 296 300 304 305 303 302 303 303 303 301 300 299 299 298 297 296 295 294 294 293 293 293 292 292 291 291 290 290 289 288 287 287 286 285 284 283 282 281 280 279 278 276 275 274 273 272 271 270 269
302 302 302 302 301 302 302 303 303 304 304 304 305 306 307 307 305 303 302 303 305 305 302 299 297 299 301 302 302 302 303 303 303 302 302 299 295 296 300 305 306 306 305 304 304 303 301 299 298 298 298 298 298 298 298 297 297 296 295 294 292 292 291 290 289 289 288 287 286 285 284 284 283 282 281 280 279 278 276 275 275 274 273 271 270 267
306 305 305 304 304 304 305 305 305 305 305 305 306 306 307 305 302 299 298 301 302 301 300 299 298 298 298 300 302 302 302 302 303 306 309 305 298 297 302 306 307 307 307 307 307 306 304 302 301 301 301 301 301 302 301 300 299 298 296 294 293 292 291 290 289 289 288 288 287 286 286 285 284 283 282 281 280 279 278 277 276 276 275 273 270 268
312 311 310 308 308 308 308 307 307 307 306 307 307 307 306 302 297 294 295 297 298 298 298 298 299 298 299 301 301 301 301 302 306 311 313 308 301 300 305 306 306 307 309 310 310 308 306 306 306 305 305 304 304 303 302 302 300 299 297 295 294 293 292 291 290 289 289 289 289 288 287 286 285 284 284 283 282 281 280 279 277 276 275 273 270 268
315 314 312 311 311 311 310 310 309 309 308 308 308 307 304 301 297 294 294 295 295 295 296 296 297 297 298 300 300 298 299 302 306 311 312 307 301 301 305 305 305 306 307 308 308 307 307 308 309 309 308 307 305 304 302 301 300 299 297 296 294 294 293 293 292 292 292 291 290 289 288 287 286 285 284 283 282 281 280 279 278 276 274 272 270 267
315 313 312 311 311 311 312 311 311 310 310 309 308 307 304 301 299 297 296 295 294 293 293 294 294 294 294 293 290 289 291 298 303 307 309 304 300 300 303 303 303 304 305 304 301 297 302 306 309 310 310 308 306 304 303 301 300 299 297 296 295 294 295 295 295 295 294 293 292 291 289 288 287 285 285 283 282 281 280 278 277 275 273 271 269 266
313 311 311 311 312 312 312 312 312 311 311 309 308 308 306 304 302 300 298 296 294 292 292 292 292 292 292 290 288 287 289 294 299 303 306 303 301 301 302 302 302 303 304 302 299 295 293 294 302 306 308 307 306 304 303 302 301 300 298 298 296 296 297 297 297 296 296 295 294 292 291 290 288 286 285 284 282 281 279 277 275 274 271 270 268 266
312 311 311 312 313 313 313 313 312 312 311 309 309 308 308 306 305 303 300 298 295 293 291 290 290 291 292 292 290 289 290 293 297 302 304 303 300 300 301 301 301 302 303 302 301 298 295 295 298 302 305 306 305 304 303 302 302 301 300 298 298 297 298 298 297 296 295 295 294 292 291 291 289 287 287 285 283 282 280 277 275 272 270 268 266 265
312 312 313 314 314 314 314 314 313 313 312 311 310 310 309 308 307 305 302 301 298 295 292 290 288 288 289 289 289 290 291 294 298 301 303 301 299 298 300 300 300 301 301 300 300 300 299 298 299 300 302 304 305 304 304 303 303 303 301 299 298 297 297 297 296 295 295 294 293 291 291 291 289 288 287 286 285 283 282 280 276 273 271 268 266 264
312 313 314 315 315 315 314 314 314 314 313 313 312 311 310 309 307 305 304 302 300 297 295 293 290 287 285 284 283 284 287 292 296 299 299 297 296 295 296 297 298 298 298 297 297 298 298 299 300 301 301 300 301 303 305 306 307 306 303 301 299 297 296 296 295 294 294 293 292 292 292 291 290 289 288 288 286 285 282 281 278 275 273 269 266 264
313 313 315 315 315 314 314 314 314 314 314 313 313 312 311 309 307 306 304 302 301 300 299 296 293 289 286 284 282 282 284 288 292 294 295 295 293 292 291 293 294 295 293 293 295 296 296 297 299 300 300 296 296 301 305 307 308 308 305 303 301 300 298 297 296 294 292 292 292 292 292 292 291 290 289 289 288 286 284 281 279 277 274 271 268 265
314 314 314 315 315 315 314 313 313 313 313 312 312 311 310 308 306 304 303 302 300 299 300 300 297 294 292 289 287 286 286 287 290 292 294 294 292 290 289 289 290 291 289 288 289 291 293 293 295 297 296 298 298 299 302 305 306 306 306 305 303 301 298 298 298 297 295 293 293 293 293 293 292 291 291 290 289 287 285 283 281 279 276 273 270 267
315 314 314 314 314 314 313 312 311 311 311 310 309 309 308 307 305 303 302 302 301 300 300 300 299 297 296 294 292 290 290 289 291 292 294 293 291 290 288 288 288 288 288 286 285 286 287 288 289 291 293 296 298 300 301 302 302 303 305 307 307 305 302 302 301 299 297 295 295 295 295 294 294 292 291 290 288 286 283 282 281 279 277 274 271 269
315 314 313 313 313 312 310 309 309 309 309 309 308 308 307 307 307 306 306 306 305 304 303 301 300 299 298 297 296 294 293 293 293 293 294 293 292 290 288 287 286 287 288 286 285 284 286 286 287 288 290 291 294 297 299 299 300 301 304 307 308 307 306 305 303 301 299 296 295 294 295 296 295 293 291 289 287 284 282 281 280 279 276 271 267 265
313 312 312 312 312 311 309 308 308 309 308 308 308 308 309 309 310 311 310 311 311 310 308 308 308 307 304 302 300 298 297 296 295 295 295 295 295 293 289 287 286 286 287 286 286 285 285 286 287 289 289 290 291 293 294 294 296 299 301 301 301 302 303 304 303 302 301 299 298 297 296 296 295 294 292 290 288 286 284 281 279 278 276 270 264 259
312 311 311 311 311 310 309 309 309 309 310 310 310 309 310 309 310 312 313 313 313 313 312 313 313 311 309 307 306 304 302 301 299 299 298 299 298 296 293 289 287 286 286 287 288 289 288 287 287 287 288 289 290 291 291 292 294 296 297 296 297 301 304 305 306 307 305 303 302 301 299 297 295 294 294 292 290 289 287 284 280 277 274 271 265 259
311 310 309 309 309 310 310 310 311 312 313 312 311 311 311 311 311 311 311 311 312 312 312 312 312 310 307 307 308 309 308 307 305 304 302 301 301 300 297 294 291 289 288 289 290 292 292 290 288 286 286 287 287 286 288 291 293 295 295 295 298 301 306 307 309 309 309 306 304 303 301 299 297 296 295 294 292 290 288 285 281 278 276 272 268 263
309 308 309 309 310 311 312 313 313 314 314 313 312 311 312 311 311 311 310 310 310 311 312 312 310 308 306 305 307 309 310 311 310 308 305 305 306 305 302 298 295 293 291 289 289 292 294 294 292 290 289 288 286 285 285 287 290 293 294 296 296 295 294 299 303 306 307 307 307 306 304 302 301 300 299 296 293 291 288 285 283 281 279 277 273 268
308 309 310 311 312 313 313 314 314 314 314 313 312 312 313 313 313 312 309 309 310 310 312 311 310 308 306 306 308 310 312 312 312 311 309 311 311 310 306 302 299 297 295 291 289 288 289 291 293 293 293 290 287 283 282 284 287 290 293 297 298 296 293 295 298 302 304 306 307 307 307 306 305 303 301 299 297 294 291 288 285 283 283 281 279 274
311 311 312 313 314 313 313 313 314 315 315 314 314 314 314 314 314 313 311 309 309 309 310 310 308 306 304 307 309 310 311 312 313 314 313 313 312 311 310 307 304 301 299 295 292 289 286 285 287 290 292 291 288 284 281 281 283 288 293 298 301 301 300 300 301 302 304 306 307 308 308 308 308 305 303 302 301 299 296 293 290 287 285 284 282 278
313 313 313 313 313 313 313 314 315 315 315 315 315 315 315 315 314 314 313 311 310 309 309 309 308 305 304 305 306 307 309 310 312 314 315 315 314 313 312 311 309 306 301 298 295 292 288 285 283 283 284 285 286 286 284 283 284 288 293 298 301 303 303 303 304 305 306 306 307 308 310 310 310 308 306 306 305 303 301 298 296 293 290 287 284 281
312 312 312 313 313 313 313 314 315 315 315 315 315 315 316 315 314 314 314 313 311 310 310 309 308 306 306 306 306 306 307 308 309 311 313 314 315 315 315 314 312 310 307 304 299 295 292 289 285 280 275 272 273 279 283 286 288 291 295 299 301 303 303 304 306 308 309 308 308 309 310 310 309 308 308 308 309 309 307 304 302 300 298 294 289 285
311 311 311 311 311 311 312 313 314 314 314 313 314 314 315 315 315 314 312 312 311 310 309 308 307 306 306 307 307 307 308 308 308 310 312 314 315 317 317 317 316 315 314 312 309 306 302 298 291 282 272 262 260 267 276 284 290 295 298 300 302 303 303 305 307 310 311 311 311 311 311 310 309 307 307 308 310 311 312 311 310 308 307 304 300 294
311 309 310 310 311 311 311 312 313 313 312 311 312 313 314 315 315 314 313 312 311 309 308 306 305 304 304 305 305 306 307 308 309 310 312 314 316 317 318 319 320 320 320 321 321 321 319 314 306 294 280 263 255 257 268 284 295 301 303 303 304 304 305 307 309 312 314 314 314 313 313 313 313 313 313 311 311 313 316 317 318 317 316 314 311 306
311 310 310 311 311 311 311 312 312 311 311 310 310 311 312 313 313 313 313 313 312 310 307 307 305 304 305 304 305 307 307 307 308 309 311 314 315 316 317 319 321 323 324 325 326 327 327 326 322 317 308 287 267 261 274 289 299 303 305 305 306 308 309 309 311 314 315 315 315 315 315 316 319 321 321 319 316 315 319 321 322 321 320 320 318 315